Kosmos-1193

operational
NORAD ID: 11876 Int'l Des: 1980-058 Owner: GUKOSR Country: SU
LEOCIRCULAR

关于 Kosmos-1193

正在加载描述...

实时位置

正在加载3D地球...

即将过境

高度历史

Altitude vs Time

uPlot chart will show altitude changes over time

两行轨道根数

1 11876U 80058B 25347.03654745 -.00000003 00000-0 80583-4 0 9991
2 11876 74.0194 0.7085 0038769 162.3617 261.2364 12.54949359 81159
Epoch: Dec 13, 2025 • Age: 13 hours

当前状态

高度 1454.6 km
速度 7.14 km/s
星下点 66.11°N, 102.77°E
发射日期 Jul 9, 1980
运行时间 45.4 years
类型 other

技术详情

分类 Payload
质量 60.00 kg
干质量 60.00 kg
总质量 60.00 kg
长度 0.80 m
直径 0.80 m
跨度 0.80 m
形状 Poly
制造商 NPOPM
平台类型 Strela-1 11F625
阶段状态 In Orbit
所有者/国家 GUKOSR/SU

大型星座

Loading constellations...